[[{"header":{"parameterUnit":"m.s-1","parameterCategory":1,"la1":30.2991,"la2":30.254,"lo1":-89.0895,"lo2":-89.0444,"dy":0.0017,"dx":0.0017,"nx":28,"ny":28,"refTime":"2023-11-14T09:00:00:Z","depth":0,"parameterNumber":2,"parameterNumberName":"U-component_of_WINDS"},"data":[0,0,0,0,0,0,0,0,0,0,0,0,0,0,0,0,0,0,0,0,0,0,0,0,0,0,0,0,0,0,0,0,0,0,0,0,0,0,0,0,0,0,0,0,0,0,0,0,0,0,0,0,0,0,0,0,0,0,-5.4408,-5.4413,0,-5.4861,-5.4866,-5.4872,-5.4977,-5.4974,-5.4971,-5.4968,-5.5436,-5.5451,-5.5467,0,0,0,0,0,0,0,0,0,0,0,0,0,-5.3639,-5.3652,-5.4408,-5.4414,-5.4419,-5.486,-5.4867,-5.4873,-5.4978,-5.4974,-5.497,-5.4966,-5.5431,-5.5449,-5.5468,0,0,0,0,0,0,0,0,0,0,0,0,0,-5.402,-5.3657,-5.4407,-5.4525,-5.454,-5.4859,-5.4867,-5.4875,-5.4978,-5.4974,-5.4969,-5.4965,-5.5425,-5.5448,-5.547,-5.5707,0,0,-5.5541,-5.5551,0,0,0,0,0,0,0,0,-5.3998,-5.4048,-5.4502,-5.4517,-5.4534,-5.4858,-5.4767,-5.5154,-5.498,-5.4812,-5.4968,-5.4962,-5.5248,-5.5285,-5.5381,-5.5729,-5.5749,-5.5543,-5.5557,-5.5567,-5.5573,0,0,0,0,0,0,0,-5.3972,-5.403,-5.4587,-5.4508,-5.4528,-5.4556,-5.4605,-5.4841,-5.5051,-5.4826,-5.4835,-5.4887,-5.5256,-5.5358,-5.5393,-5.5756,-5.5542,-5.5563,-5.5577,-5.5586,-5.632,-5.6326,0,0,0,0,0,0,-5.3924,-5.4007,-5.4573,-5.4601,-5.4249,-5.4574,-5.4629,-5.4759,-5.5049,-5.5088,-5.489,-5.489,-5.5321,-5.5365,-5.5409,-5.5705,-5.5567,-5.5588,-5.5602,-5.6315,-5.6322,-5.6328,0,0,0,0,0,0,-5.3907,-5.3974,-5.4555,-5.4307,-5.4383,-5.4592,-5.4737,-5.477,-5.4872,-5.5097,-5.5135,-5.4956,-5.5319,-5.5377,-5.5632,-5.5722,-5.5599,-5.562,-5.6308,-5.6317,-5.6325,-5.6297,0,0,0,0,0,0,-5.3885,-5.3967,-5.4058,-5.4308,-5.4395,-5.4768,-5.4743,-5.4782,-5.4911,-5.4915,-5.5169,-5.5206,-5.532,-5.5597,-5.5655,-5.5752,-5.5638,-5.6301,-5.6312,-5.6322,-5.629,-5.6303,-5.6314,0,0,0,0,0,-5.3857,-5.4033,-5.4062,-5.4129,-5.4513,-5.4773,-5.4823,-5.4949,-5.4918,-5.5012,-5.5156,-5.5198,-5.5703,-5.5622,-5.5688,-5.5794,-5.6296,-5.6309,-5.6321,-5.6285,-5.6301,-5.6314,0,0,0,0,0,0,-5.379,-5.4068,-5.4103,-5.4364,-5.4544,-5.479,-5.4912,-5.4962,-5.5155,-5.5151,-5.5301,-5.5357,-5.5602,-5.5724,-5.5628,-5.6038,-5.5999,-5.6025,-5.5949,-5.5966,-5.5977,-5.5942,-5.5657,0,0,0,0,0,-5.3805,-5.3991,-5.4225,-5.4433,-5.4521,-5.4701,-5.4819,-5.49,-5.5093,-5.517,-5.5333,-5.552,-5.5721,-5.585,-5.6048,-5.6309,-5.6366,-5.6415,-5.6426,-5.6435,-5.6456,-5.6603,-5.6627,-5.637,-5.637,-5.6369,0,0,-5.3839,-5.4014,-5.4122,-5.4424,-5.4573,-5.4764,-5.4764,-5.4966,-5.511,-5.5202,-5.5451,-5.5578,-5.5796,-5.6055,-5.6177,-5.6164,-5.654,-5.6451,-5.6456,-5.6473,-5.6619,-5.6643,-5.6664,-5.6378,-5.6377,-5.6375,0,0,-5.3998,-5.4149,-5.4339,-5.4487,-5.4712,-5.483,-5.4876,-5.5115,-5.5202,-5.5455,-5.5528,-5.5702,-5.6045,-5.6197,-5.632,-5.6537,-5.6583,-5.6597,-5.6659,-5.68,-5.6821,-5.6839,-5.6916,-5.6942,-5.6618,-5.6618,-5.6618,0,-5.4012,-5.4301,-5.443,-5.4629,-5.476,-5.485,-5.5044,-5.5183,-5.5461,-5.555,-5.5531,-5.5963,-5.6117,-5.6413,-5.6465,-5.6562,-5.6619,-5.6568,-5.6807,-5.6827,-5.6847,-5.6922,-5.695,-5.6618,-5.6618,-5.6618,-5.6618,0,-5.4307,-5.4506,-5.4633,-5.4897,-5.5043,-5.5238,-5.5399,-5.5531,-5.56,-5.572,-5.5977,-5.6165,-5.6401,-5.6478,-5.6548,-5.6785,-5.6769,-5.6777,-5.6741,-5.6869,-5.6942,-5.6972,-5.6618,-5.6618,-5.6618,-5.6618,0,0,-5.4435,-5.4768,-5.4813,-5.4933,-5.5188,-5.5346,-5.5546,-5.5776,-5.5886,-5.6076,-5.6247,-5.6536,-5.6544,-5.6683,-5.6772,-5.6896,-5.7056,-5.689,-5.6897,-5.6913,-5.7327,-5.7318,-5.7349,-5.7088,-5.7094,-5.7099,-5.7308,0,-5.4625,-5.4983,-5.5105,-5.5402,-5.5588,-5.5677,-5.5852,-5.6028,-5.6146,-5.6323,-5.6455,-5.6656,-5.6653,-5.6737,-5.6865,-5.7009,-5.7141,-5.6996,-5.725,-5.7257,-5.7191,-5.7388,-5.738,-5.7568,-5.7338,-5.7343,-5.7347,0,-5.4893,-5.5084,-5.5398,-5.563,-5.5713,-5.5867,-5.6087,-5.6255,-5.6457,-5.6535,-5.6689,-5.6769,-5.6983,-5.6935,-5.7232,-5.713,-5.7242,-5.7329,-5.734,-5.7367,-5.7308,-5.742,-5.7631,-5.7658,-5.7393,-5.7389,-5.7386,0,-5.4954,-5.529,-5.5521,-5.5622,-5.5898,-5.6005,-5.6125,-5.6322,-5.6453,-5.6647,-5.6733,-5.695,-5.7068,-5.7235,-5.7371,-5.7323,-5.7656,-5.7619,-5.7727,-5.7723,-5.7792,-5.7785,-5.8022,-5.7865,-5.7865,-5.7864,-5.7864,0,-5.5152,-5.534,-5.5552,-5.5694,-5.5909,-5.6049,-5.6258,-5.6384,-5.6559,-5.6729,-5.6821,-5.6978,-5.7149,-5.7329,-5.7438,-5.7667,-5.7721,-5.779,-5.7816,-5.7781,-5.7772,-5.7855,-5.7845,-5.7872,-5.787,-5.7869,-5.7868,0,-5.5254,-5.5404,-5.5662,-5.5902,-5.5966,-5.6114,-5.632,-5.6463,-5.6585,-5.6798,-5.6857,-5.7049,-5.7266,-5.7419,-5.7699,-5.7772,-5.8019,-5.8045,-5.7949,-5.7962,-5.806,-5.8048,-5.8359,-5.8406,-5.8218,-5.8219,-5.8221,0,-5.537,-5.5517,-5.5772,-5.5891,-5.601,-5.6201,-5.6334,-5.648,-5.6615,-5.6856,-5.6969,-5.7192,-5.7378,-5.7721,-5.7887,-5.8101,-5.8132,-5.8226,-5.8165,-5.8125,-5.8132,-5.8121,-5.8136,-5.8234,-5.8236,-5.8237,-5.8238,0,-5.5558,-5.5625,-5.5812,-5.6026,-5.6181,-5.6357,-5.6534,-5.6627,-5.6804,-5.6951,-5.7173,-5.7317,-5.7602,-5.7822,-5.8052,-5.8179,-5.8238,-5.8256,-5.8292,-5.8256,-5.8194,-5.8228,-5.7973,-5.8248,-5.8247,-5.8246,-5.8246,-5.8245,-5.5671,-5.5805,-5.6005,-5.6211,-5.6359,-5.6522,-5.6667,-5.6807,-5.6994,-5.7236,-5.7311,-5.7541,-5.7741,-5.8057,-5.8186,-5.8369,-5.8363,-5.8416,-5.8429,-5.8439,-5.8437,-5.8166,-5.8412,-5.8412,-5.8412,-5.8412,-5.8412,0,-5.5863,-5.5996,-5.6183,-5.6427,-5.6589,-5.663,-5.6828,-5.6961,-5.7162,-5.7342,-5.7523,-5.7778,-5.7992,-5.8175,-5.8397,-5.8509,-5.8542,-5.8562,-5.8554,-5.8582,-5.843,-5.8376,-5.8532,-5.8532,-5.8532,-5.8531,-5.8531,-5.8531,-5.5981,-5.621,-5.6301,-5.6605,-5.6738,-5.6962,-5.7071,-5.7223,-5.7368,-5.7647,-5.7825,-5.7943,-5.8125,-5.8361,-5.856,-5.8609,-5.8685,-5.8699,-5.8753,-5.8607,-5.8593,-5.858,-5.853,-5.8715,-5.8715,-5.8891,-5.8892,-5.8894]},{"header":{"parameterUnit":"m.s-1","parameterCategory":1,"la1":30.2991,"la2":30.254,"lo1":-89.0895,"lo2":-89.0444,"dy":0.0017,"dx":0.0017,"nx":28,"ny":28,"refTime":"2023-11-14T09:00:00:Z","depth":0,"parameterNumber":3,"parameterNumberName":"V-component_of_WINDS"},"data":[0,0,0,0,0,0,0,0,0,0,0,0,0,0,0,0,0,0,0,0,0,0,0,0,0,0,0,0,0,0,0,0,0,0,0,0,0,0,0,0,0,0,0,0,0,0,0,0,0,0,0,0,0,0,0,0,0,0,-2.6489,-2.6485,0,-2.6164,-2.616,-2.6157,-2.6059,-2.6061,-2.6062,-2.6064,-2.5716,-2.5706,-2.5695,0,0,0,0,0,0,0,0,0,0,0,0,0,-2.7005,-2.6997,-2.6489,-2.6485,-2.6481,-2.6165,-2.616,-2.6156,-2.6059,-2.6061,-2.6063,-2.6065,-2.572,-2.5707,-2.5694,0,0,0,0,0,0,0,0,0,0,0,0,0,-2.6741,-2.6994,-2.649,-2.6395,-2.6383,-2.6166,-2.616,-2.6155,-2.6058,-2.6061,-2.6063,-2.6066,-2.5724,-2.5708,-2.5692,-2.5542,0,0,-2.5643,-2.5636,0,0,0,0,0,0,0,0,-2.6756,-2.6722,-2.6413,-2.6401,-2.6387,-2.6155,-2.6215,-2.5948,-2.6058,-2.6181,-2.6064,-2.6067,-2.5859,-2.5832,-2.5765,-2.5525,-2.551,-2.5641,-2.5631,-2.5625,-2.562,0,0,0,0,0,0,0,-2.6774,-2.6735,-2.636,-2.6408,-2.6393,-2.6362,-2.6327,-2.6164,-2.6009,-2.6171,-2.6163,-2.6126,-2.5853,-2.5781,-2.5756,-2.5505,-2.5642,-2.5627,-2.5617,-2.5611,-2.5114,-2.5111,0,0,0,0,0,0,-2.6811,-2.6751,-2.637,-2.635,-2.6582,-2.6351,-2.6312,-2.6227,-2.6011,-2.5981,-2.6125,-2.6123,-2.5808,-2.5775,-2.5744,-2.5546,-2.5625,-2.5609,-2.56,-2.5117,-2.5113,-2.5109,0,0,0,0,0,0,-2.6823,-2.6778,-2.6383,-2.6548,-2.6496,-2.6339,-2.6244,-2.6219,-2.6147,-2.5977,-2.5947,-2.6081,-2.5808,-2.5766,-2.5591,-2.5532,-2.5602,-2.5587,-2.5121,-2.5116,-2.5111,-2.5154,0,0,0,0,0,0,-2.6838,-2.6783,-2.6729,-2.6548,-2.6488,-2.6243,-2.6241,-2.6211,-2.6121,-2.6116,-2.5928,-2.5899,-2.5807,-2.5616,-2.5575,-2.5511,-2.5575,-2.5126,-2.5119,-2.5113,-2.5157,-2.515,-2.5145,0,0,0,0,0,-2.6857,-2.6753,-2.6727,-2.6682,-2.6418,-2.624,-2.6204,-2.6105,-2.6118,-2.6058,-2.5947,-2.5905,-2.5547,-2.5599,-2.5552,-2.5483,-2.5129,-2.5121,-2.5113,-2.5159,-2.5152,-2.5145,0,0,0,0,0,0,-2.6928,-2.6728,-2.6697,-2.6533,-2.6404,-2.6224,-2.6147,-2.6102,-2.5964,-2.5964,-2.5842,-2.58,-2.5632,-2.554,-2.5602,-2.532,-2.5335,-2.5318,-2.5386,-2.5378,-2.5372,-2.5395,-2.5561,0,0,0,0,0,-2.6925,-2.6803,-2.6633,-2.6503,-2.6441,-2.6305,-2.6224,-2.6158,-2.6018,-2.5962,-2.5838,-2.57,-2.5554,-2.5461,-2.532,-2.5144,-2.5096,-2.5072,-2.5066,-2.5062,-2.5047,-2.4938,-2.4922,-2.5084,-2.5084,-2.5084,0,0,-2.6917,-2.6792,-2.6722,-2.6514,-2.6407,-2.6276,-2.626,-2.6124,-2.6022,-2.594,-2.5766,-2.567,-2.5506,-2.5328,-2.5243,-2.5246,-2.4992,-2.5052,-2.5051,-2.5037,-2.4928,-2.4913,-2.4899,-2.5079,-2.508,-2.508,0,0,-2.6834,-2.6731,-2.6609,-2.6501,-2.634,-2.6249,-2.622,-2.6044,-2.5978,-2.5803,-2.5735,-2.561,-2.5366,-2.5249,-2.5158,-2.5024,-2.4976,-2.4981,-2.4949,-2.4844,-2.4831,-2.4819,-2.4764,-2.4746,-2.4967,-2.4967,-2.4967,0,-2.6842,-2.6648,-2.655,-2.6415,-2.6322,-2.6244,-2.6114,-2.6013,-2.5812,-2.5745,-2.5753,-2.5439,-2.5324,-2.5113,-2.508,-2.5012,-2.4967,-2.5,-2.4843,-2.4829,-2.4816,-2.4761,-2.4742,-2.4968,-2.4968,-2.4968,-2.4968,0,-2.6662,-2.6528,-2.6447,-2.6257,-2.6155,-2.6024,-2.5898,-2.5805,-2.5747,-2.5653,-2.547,-2.5328,-2.5153,-2.5098,-2.504,-2.4876,-2.4882,-2.4868,-2.488,-2.4804,-2.475,-2.4729,-2.497,-2.4969,-2.4969,-2.4969,0,0,-2.6616,-2.6371,-2.6343,-2.6252,-2.6065,-2.5956,-2.5817,-2.5648,-2.5567,-2.5429,-2.5303,-2.5096,-2.5079,-2.4975,-2.4902,-2.4811,-2.4703,-2.4806,-2.48,-2.4786,-2.4503,-2.4511,-2.449,-2.4673,-2.4668,-2.4665,-2.4515,0,-2.6505,-2.6259,-2.6163,-2.596,-2.5828,-2.575,-2.5626,-2.5495,-2.5402,-2.5271,-2.5166,-2.5018,-2.5012,-2.4947,-2.4854,-2.4737,-2.4644,-2.4747,-2.4546,-2.454,-2.4585,-2.4463,-2.4472,-2.4337,-2.4494,-2.449,-2.4488,0,-2.6343,-2.6205,-2.599,-2.5812,-2.5753,-2.5646,-2.5479,-2.5358,-2.5203,-2.5141,-2.5023,-2.4954,-2.4796,-2.4821,-2.4597,-2.4669,-2.4581,-2.451,-2.4502,-2.4475,-2.4506,-2.4426,-2.4293,-2.427,-2.4455,-2.4458,-2.446,0,-2.6322,-2.6083,-2.592,-2.5846,-2.5637,-2.5561,-2.547,-2.5318,-2.522,-2.5072,-2.5005,-2.4841,-2.4749,-2.4619,-2.4504,-2.4534,-2.4287,-2.4305,-2.4223,-2.4226,-2.4171,-2.4175,-2.4016,-2.4125,-2.4125,-2.4126,-2.4126,0,-2.6205,-2.6074,-2.5908,-2.5808,-2.5655,-2.5543,-2.5393,-2.5295,-2.5159,-2.5032,-2.4953,-2.4834,-2.4693,-2.4553,-2.4462,-2.4285,-2.4245,-2.4184,-2.416,-2.4188,-2.4195,-2.4125,-2.4129,-2.412,-2.4121,-2.4123,-2.4123,0,-2.6156,-2.6041,-2.5857,-2.5673,-2.5623,-2.5518,-2.5357,-2.5252,-2.5155,-2.4994,-2.495,-2.4794,-2.4625,-2.4498,-2.4279,-2.4217,-2.4026,-2.4005,-2.4079,-2.4066,-2.3989,-2.3996,-2.3774,-2.3736,-2.3878,-2.3877,-2.3876,0,-2.6086,-2.5984,-2.5788,-2.57,-2.5609,-2.5468,-2.5367,-2.5249,-2.5146,-2.4958,-2.4873,-2.47,-2.4554,-2.4286,-2.4149,-2.3978,-2.3947,-2.3881,-2.3921,-2.3949,-2.3937,-2.3942,-2.3927,-2.3875,-2.3874,-2.3873,-2.3872,0,-2.5972,-2.5919,-2.578,-2.5618,-2.5501,-2.5367,-2.5231,-2.5161,-2.5018,-2.4904,-2.4732,-2.462,-2.4394,-2.4219,-2.4034,-2.3931,-2.3873,-2.3862,-2.3832,-2.3856,-2.3901,-2.3868,-2.4058,-2.3866,-2.3867,-2.3867,-2.3868,-2.3868,-2.5906,-2.5808,-2.5653,-2.5498,-2.5384,-2.5257,-2.5147,-2.5035,-2.4891,-2.4701,-2.4639,-2.4459,-2.4296,-2.4042,-2.3937,-2.3788,-2.3788,-2.3748,-2.3736,-2.3726,-2.3724,-2.393,-2.3755,-2.3755,-2.3755,-2.3755,-2.3755,0,-2.5782,-2.5678,-2.5537,-2.5349,-2.5224,-2.5187,-2.5032,-2.4928,-2.4772,-2.4629,-2.4486,-2.4283,-2.4111,-2.3959,-2.3779,-2.3688,-2.3656,-2.3644,-2.3646,-2.3621,-2.3739,-2.3779,-2.3672,-2.3672,-2.3672,-2.3672,-2.3672,-2.3672,-2.5703,-2.5532,-2.5459,-2.5227,-2.5122,-2.4948,-2.4861,-2.474,-2.4624,-2.4402,-2.426,-2.4164,-2.4012,-2.3819,-2.3656,-2.3615,-2.3549,-2.3541,-2.3492,-2.3604,-2.3614,-2.3623,-2.366,-2.3529,-2.3529,-2.3386,-2.3384,-2.3383]}]]